When you browse on this site, cookies collect data to enhance your experience and personalize the content and advertising you see.
Visit our Privacy Policy to learn more. By continuing to use the site, you agree to this use of cookies and data.
  • In France
  • List of Countries
  • For 7 days
  • Water Temperature
  • Weather Map
  • Weather Widgets
  • user-avatar
    Login

    Hourly Weather Kinshasa

    Today, 29 May, Friday

    Time Temperature Precipitation Wind Pressure Humidity
    00:00 +24°C° 1.8 mm 1 mps 707 mmHg 96%
    01:00 +24°C° 1.8 mm 1 mps 707 mmHg 98%
    02:00 +23°C° 1.7 mm 1 mps 707 mmHg 98%
    03:00 +23°C° 1.7 mm 1 mps 707 mmHg 98%
    04:00 +23°C° 1.7 mm 1 mps 707 mmHg 98%
    05:00 +23°C° 0.4 mm 1 mps 707 mmHg 98%
    06:00 +23°C° 0.4 mm 1 mps 708 mmHg 98%
    07:00 +24°C° 0.4 mm 1 mps 708 mmHg 97%
    08:00 +25°C° 0.2 mm 1 mps 708 mmHg 92%
    09:00 +27°C° 0.2 mm 1 mps 709 mmHg 87%
    10:00 +28°C° 0.2 mm 1 mps 709 mmHg 82%
    11:00 +29°C° 1.2 mm 1 mps 708 mmHg 80%
    12:00 +30°C° 1.2 mm 1 mps 708 mmHg 77%
    13:00 +31°C° 1.2 mm 1 mps 707 mmHg 75%
    14:00 +29°C° 3.1 mm 1 mps 707 mmHg 82%
    15:00 +26°C° 3.1 mm 1 mps 706 mmHg 89%
    16:00 +24°C° 3.1 mm 1 mps 705 mmHg 97%
    17:00 +24°C° 1.2 mm 1 mps 705 mmHg 97%
    18:00 +24°C° 1.2 mm 1 mps 706 mmHg 97%
    19:00 +23°C° 1.2 mm 1 mps 707 mmHg 98%
    20:00 +23°C° 0.3 mm 1 mps 707 mmHg 98%
    21:00 +21°C° 0.3 mm 0 mps 707 mmHg 97%
    22:00 +21°C° 0.3 mm 0 mps 707 mmHg 97%
    23:00 +21°C° 0 mm 0 mps 707 mmHg 97%

    Tomorrow, 30 May, Saturday

    Time Temperature Precipitation Wind Pressure Humidity
    00:00 +23°C° 0 mm 1 mps 707 mmHg 97%
    01:00 +23°C° 0 mm 1 mps 707 mmHg 97%
    02:00 +22°C° 0 mm 1 mps 707 mmHg 97%
    03:00 +22°C° 0 mm 1 mps 707 mmHg 97%
    04:00 +22°C° 0 mm 1 mps 707 mmHg 97%
    05:00 +20°C° 0.1 mm 0 mps 707 mmHg 97%
    06:00 +21°C° 0.1 mm 0 mps 708 mmHg 97%
    07:00 +21°C° 0.1 mm 0 mps 708 mmHg 96%
    08:00 +23°C° 0 mm 0 mps 708 mmHg 91%
    09:00 +24°C° 0 mm 0 mps 708 mmHg 86%
    10:00 +26°C° 0 mm 0 mps 708 mmHg 80%
    11:00 +27°C° 0 mm 0 mps 708 mmHg 75%
    12:00 +30°C° 0 mm 1 mps 708 mmHg 71%
    13:00 +32°C° 0 mm 1 mps 708 mmHg 66%
    14:00 +30°C° 0.2 mm 1 mps 707 mmHg 71%
    15:00 +29°C° 0.2 mm 1 mps 706 mmHg 76%
    16:00 +28°C° 0.2 mm 1 mps 705 mmHg 81%
    17:00 +25°C° 0.3 mm 0 mps 706 mmHg 84%
    18:00 +24°C° 0.3 mm 0 mps 706 mmHg 87%
    19:00 +23°C° 0.3 mm 0 mps 706 mmHg 90%
    20:00 +22°C° 0.7 mm 0 mps 707 mmHg 92%
    21:00 +22°C° 0.7 mm 0 mps 707 mmHg 93%
    22:00 +21°C° 0.7 mm 0 mps 708 mmHg 95%
    23:00 +21°C° 0.5 mm 0 mps 708 mmHg 96%

    Day after tomorrow, 31 May, Sunday

    Time Temperature Precipitation Wind Pressure Humidity
    00:00 +21°C° 0.5 mm 0 mps 708 mmHg 96%
    01:00 +21°C° 0.5 mm 0 mps 707 mmHg 97%
    02:00 +20°C° 0.7 mm 0 mps 707 mmHg 97%
    03:00 +20°C° 0.7 mm 0 mps 707 mmHg 97%
    04:00 +20°C° 0.7 mm 0 mps 707 mmHg 97%
    05:00 +20°C° 0.7 mm 0 mps 708 mmHg 97%
    06:00 +21°C° 0.7 mm 0 mps 708 mmHg 97%
    07:00 +23°C° 0.7 mm 1 mps 709 mmHg 97%
    08:00 +23°C° 0.1 mm 1 mps 709 mmHg 96%
    09:00 +24°C° 0.1 mm 1 mps 709 mmHg 96%
    10:00 +24°C° 0.1 mm 1 mps 709 mmHg 96%
    11:00 +26°C° 0 mm 1 mps 709 mmHg 87%
    12:00 +28°C° 0 mm 1 mps 708 mmHg 78%
    13:00 +30°C° 0 mm 1 mps 708 mmHg 70%
    14:00 +30°C° 0 mm 1 mps 707 mmHg 70%
    15:00 +30°C° 0 mm 1 mps 707 mmHg 70%
    16:00 +28°C° 0 mm 0 mps 706 mmHg 70%
    17:00 +26°C° 0.1 mm 0 mps 707 mmHg 75%
    18:00 +25°C° 0.1 mm 0 mps 707 mmHg 81%
    19:00 +23°C° 0.1 mm 0 mps 707 mmHg 87%
    20:00 +23°C° 0 mm 0 mps 707 mmHg 88%
    21:00 +22°C° 0 mm 0 mps 708 mmHg 89%
    22:00 +22°C° 0 mm 0 mps 708 mmHg 91%
    23:00 +21°C° 0.2 mm 0 mps 708 mmHg 92%

    1 June, Monday

    Time Temperature Precipitation Wind Pressure Humidity
    00:00 +21°C° 0.2 mm 0 mps 708 mmHg 93%
    01:00 +21°C° 0.2 mm 0 mps 708 mmHg 95%
    02:00 +20°C° 0 mm 0 mps 708 mmHg 95%
    03:00 +20°C° 0 mm 0 mps 708 mmHg 96%
    04:00 +20°C° 0 mm 0 mps 707 mmHg 97%
    05:00 +21°C° 0.1 mm 0 mps 708 mmHg 96%
    06:00 +21°C° 0.1 mm 0 mps 708 mmHg 95%
    07:00 +21°C° 0.1 mm 0 mps 709 mmHg 95%
    08:00 +26°C° 0 mm 1 mps 709 mmHg 86%
    09:00 +28°C° 0 mm 1 mps 709 mmHg 78%
    10:00 +31°C° 0 mm 1 mps 709 mmHg 70%
    11:00 +32°C° 0 mm 1 mps 709 mmHg 65%
    12:00 +33°C° 0 mm 1 mps 708 mmHg 61%
    13:00 +34°C° 0 mm 1 mps 708 mmHg 57%
    14:00 +33°C° 0.1 mm 1 mps 707 mmHg 61%
    15:00 +32°C° 0.1 mm 1 mps 707 mmHg 66%
    16:00 +32°C° 0.1 mm 1 mps 706 mmHg 71%
    17:00 +30°C° 0.3 mm 1 mps 706 mmHg 77%
    18:00 +28°C° 0.3 mm 1 mps 706 mmHg 83%
    19:00 +26°C° 0.3 mm 1 mps 706 mmHg 90%
    20:00 +25°C° 0.2 mm 1 mps 707 mmHg 90%
    21:00 +23°C° 0.2 mm 0 mps 707 mmHg 90%
    22:00 +22°C° 0.2 mm 0 mps 707 mmHg 91%
    23:00 +22°C° 1.6 mm 0 mps 707 mmHg 93%

    2 June, Tuesday

    Time Temperature Precipitation Wind Pressure Humidity
    00:00 +21°C° 1.6 mm 0 mps 707 mmHg 95%
    01:00 +23°C° 1.6 mm 1 mps 707 mmHg 97%
    02:00 +23°C° 0.1 mm 1 mps 707 mmHg 97%
    03:00 +21°C° 0.1 mm 0 mps 707 mmHg 96%
    04:00 +21°C° 0.1 mm 0 mps 707 mmHg 96%
    05:00 +23°C° 0.6 mm 1 mps 708 mmHg 97%
    06:00 +23°C° 0.6 mm 1 mps 708 mmHg 97%
    07:00 +23°C° 0.6 mm 1 mps 709 mmHg 98%
    08:00 +24°C° 0 mm 1 mps 709 mmHg 96%
    09:00 +24°C° 0 mm 2 mps 709 mmHg 95%
    10:00 +25°C° 0 mm 2 mps 709 mmHg 94%
    11:00 +27°C° 0 mm 2 mps 709 mmHg 86%
    12:00 +28°C° 0 mm 1 mps 708 mmHg 78%
    13:00 +30°C° 0 mm 1 mps 708 mmHg 70%
    14:00 +30°C° 0.1 mm 1 mps 707 mmHg 71%
    15:00 +30°C° 0.1 mm 1 mps 707 mmHg 73%
    16:00 +30°C° 0.1 mm 1 mps 706 mmHg 75%
    17:00 +28°C° 0.3 mm 1 mps 706 mmHg 81%
    18:00 +26°C° 0.3 mm 1 mps 706 mmHg 87%
    19:00 +23°C° 0.3 mm 0 mps 706 mmHg 93%
    20:00 +22°C° 0 mm 0 mps 707 mmHg 93%
    21:00 +24°C° 0 mm 1 mps 707 mmHg 94%
    22:00 +24°C° 0 mm 1 mps 707 mmHg 95%
    23:00 +23°C° 0.1 mm 1 mps 707 mmHg 96%

    3 June, Wednesday

    Time Temperature Precipitation Wind Pressure Humidity
    00:00 +23°C° 0.1 mm 1 mps 707 mmHg 96%
    01:00 +23°C° 0.1 mm 1 mps 707 mmHg 97%
    02:00 +23°C° 0.4 mm 1 mps 707 mmHg 98%
    03:00 +22°C° 0.4 mm 1 mps 707 mmHg 98%
    04:00 +22°C° 0.4 mm 1 mps 706 mmHg 98%
    05:00 +22°C° 0 mm 1 mps 707 mmHg 98%
    06:00 +23°C° 0 mm 1 mps 707 mmHg 98%
    07:00 +23°C° 0 mm 1 mps 708 mmHg 97%
    08:00 +25°C° 0 mm 1 mps 708 mmHg 91%
    09:00 +26°C° 0 mm 1 mps 709 mmHg 84%
    10:00 +28°C° 0 mm 1 mps 709 mmHg 77%
    11:00 +29°C° 0.1 mm 1 mps 708 mmHg 74%
    12:00 +30°C° 0.1 mm 1 mps 708 mmHg 71%
    13:00 +29°C° 0.1 mm 0 mps 707 mmHg 68%
    14:00 +30°C° 1.3 mm 1 mps 707 mmHg 76%
    15:00 +29°C° 1.3 mm 1 mps 706 mmHg 83%
    16:00 +27°C° 1.3 mm 2 mps 706 mmHg 91%
    17:00 +26°C° 0 mm 1 mps 706 mmHg 92%
    18:00 +25°C° 0 mm 1 mps 706 mmHg 94%
    19:00 +24°C° 0 mm 1 mps 706 mmHg 96%
    20:00 +24°C° 0 mm 1 mps 706 mmHg 96%
    21:00 +23°C° 0 mm 1 mps 707 mmHg 96%
    22:00 +23°C° 0 mm 1 mps 707 mmHg 97%
    23:00 +23°C° 0 mm 1 mps 707 mmHg 97%
    Show more